Simultaneous Nadir Overpasses (SNOs) Predictions

Prediction of SNOs between GOES-16 and TERRA Satellite Orbit:

Table of predicted SNOs for the next 14.0 days since TLE Epoch: 5/2/2025
Index Date Time (GOES-16) GOES-16 Lat,Lon TERRA Lat,Lon Distance(km) Time Diff (sec)
1 05/05/2025 03:12:10 -0.06, -87.75 0.06, -87.08 75.66 80
2 05/05/2025 15:34:19 0.06, -88.04 0.84, -91.84 431.99 80
3 05/07/2025 15:12:38 0.06, -89.07 -0.29, -87.28 202.60 80
4 05/08/2025 03:34:58 -0.05, -89.33 -0.64, -92.08 313.04 80
5 05/10/2025 03:13:17 -0.05, -90.37 0.53, -87.53 322.38 80
6 05/10/2025 15:35:26 0.05, -90.65 0.42, -92.27 184.89 80
7 05/12/2025 15:13:45 0.05, -91.69 -0.77, -87.72 450.75 80
8 05/13/2025 03:36:04 -0.05, -91.95 -0.19, -92.51 64.68 80
9 05/15/2025 15:33:52 0.04, -93.27 -0.10, -92.72 63.79 80
10 05/16/2025 03:56:10 -0.03, -93.53 -0.84, -97.51 451.55 80
